Weather Roundup
Issued by NWS Springfield, MO

Home | Current Version | Previous Version | Text Only | Print | Product List | Glossary On
Versions: 1 2 3 4 5 6 7 8 9 10 11 12 13 14 15 16 17 18 19 20 21 22 23 24 25 26 27 28 29 30 31 32 33 34 35 36 37 38 39 40 41 42 43 44 45 46 47 48 49 50
000
NZUS99 KSGF 231357
HRRSGF

HOURLY WEATHER
NATIONAL WEATHER SERVICE SPRINGFIELD MO
900 AM CDT MON OCT 23 2017

......SGF CWA......

CITY           SKY/WX    TMP DP  RH WIND       PRES   REMARKS
SPRINGFIELD    SUNNY     50  45  83 S5        30.01R
JOPLIN         SUNNY     52  45  77 S7        30.02R
WEST PLAINS    MOSUNNY   50  44  80 W7        30.00R
ROLLA          MOSUNNY   49  46  90 W9        29.97S
BRANSON        SUNNY     50  41  71 W5        30.04R

......SURROUNDING SGF CWA......

CITY           SKY/WX    TMP DP  RH WIND       PRES   REMARKS
CHANUTE        SUNNY     51  42  71 S12       29.96F
PARSONS        SUNNY     49  43  80 S6        29.99S
COFFEYVILLE    SUNNY     49  45  86 S8        29.99S
EMPORIA        CLOUDY    55  39  54 W13G22    29.96R
HARRISON AR    SUNNY     53  42  66 W8        30.03R

......KANSAS AND MISSOURI......

CITY           SKY/WX    TMP DP  RH WIND       PRES   REMARKS
KANSAS CTY INT MOSUNNY   50  42  74 SW8       29.93R
SEDALIA        SUNNY     49  47  93 S8        29.97F
ST JOSEPH      SUNNY     50  44  80 SW5       29.92S
ST LOUIS       CLOUDY    53  49  86 W8        29.93R
WICHITA        CLOUDY    51  42  71 NW9       30.01R
TOPEKA         CLOUDY    52  44  74 W6        29.94R
OLATHE         SUNNY     50  40  68 W8        29.94R

......TENNESSEE......

CITY           SKY/WX    TMP DP  RH WIND       PRES   REMARKS
MEMPHIS        LGT RAIN  54  52  94 W14G20    29.99R FOG
NASHVILLE      CLOUDY    59  57  93 W9        29.87R

......ARKANSAS.......

CITY           SKY/WX    TMP DP  RH WIND       PRES   REMARKS
FAYETTEVILLE   SUNNY     42  42 100 S3        30.06R
FT SMITH       SUNNY     50  47  89 CALM      30.07R
LITTLE ROCK    MOSUNNY   51  46  83 SW8       30.06S

......OKLAHOMA.......

CITY           SKY/WX    TMP DP  RH WIND       PRES   REMARKS
TULSA          MOSUNNY   54  42  64 S7        30.02R
PONCA CITY     CLOUDY    51  43  74 W6        30.02R
MCALESTER      MOSUNNY   50  45  83 SW6       30.08R
OKLAHOMA CITY  MOSUNNY   54  39  57 SW7       30.06R

......IOWA............

CITY           SKY/WX    TMP DP  RH WIND       PRES   REMARKS
DES MOINES     NOT AVBL
QUAD CITIES    CLOUDY    48  46  93 W5        29.90S

......ILLINOIS........

CITY           SKY/WX    TMP DP  RH WIND       PRES   REMARKS
QUINCY         NOT AVBL
CHICAGO        LGT RAIN  52  49  89 N7        29.86F




USA.gov is the U.S. government's official web portal to all federal, state and local government web resources and services.